Waseca, MN

9:42 AM CDT on August 21, 2019 (GMT -0500)
Waseca Municipal

Weather History for KACQ - July, 2019

Change the Weather History Date:

Sunday, July 21, 2019

  Actual Average Record
Temperature  
Mean Temperature 66 °F -  
Max Temperature 77 °F 80 °F 100 °F (1934)
Min Temperature 55 °F 59 °F 45 °F (1992)
Cooling Degree Days 1    
Growing Degree Days 16 (Base 50)    
Moisture  
Dew Point 59 °F    
Average Humidity 76    
Maximum Humidity 100    
Minimum Humidity 47    
Precipitation  
Precipitation 0.00 in - - ()
Sea Level Pressure  
Sea Level Pressure 30.08 in    
Wind  
Wind Speed 5 mph (North)    
Max Wind Speed 12 mph    
Max Gust Speed 16 mph    
Visibility 10 miles    
Events Rain    
Averages and records for this station are not official NWS values.
T = Trace of Precipitation, MM = Missing Value Source: NWS Daily Summary

Daily Weather History Graph

Daily Weather History Graph

Search for Another Location

Airport or City:

Astronomy

Jul. 21, 2019 Rise Set
Actual Time 5:50 AM CDT 8:50 PM CDT
Civil Twilight 5:16 AM CDT 9:24 PM CDT
Nautical Twilight 4:32 AM CDT 10:08 PM CDT
Astronomical Twilight 3:39 AM CDT 10:59 PM CDT
Moon 11:36 PM CDT 10:19 AM CDT
Length of Visible Light 16h 08m
Length of Day
14h 59m
Waning Gibbous, 80% of the Moon is Illuminated
Jul 21
Waning Gibbous
Jul 24
Last Quarter
Jul 31
New
Aug 7
First Quarter
Aug 15
Full

Hourly Weather History & Observations

Time (CDT) Temp. Dew Point Humidity Pressure Visibility Wind Dir Wind Speed Gust Speed Precip Events Conditions
12:15 AM 62.6 °F 60.8 °F 94% 30.01 in 10.0 mi NNE 3.5 mph - N/A   Clear
12:35 AM 60.8 °F 59.0 °F 94% 30.01 in 10.0 mi North 5.8 mph - N/A   Clear
12:36 AM 60.8 °F 59.0 °F 94% 30.01 in 10.0 mi North 5.8 mph - N/A   Clear
12:55 AM 59.0 °F 57.2 °F 94% 30.01 in 10.0 mi North 4.6 mph - N/A   Clear
1:19 AM 59.0 °F 57.2 °F 94% 30.01 in 10.0 mi Calm Calm - N/A   Clear
1:37 AM 59.0 °F 57.2 °F 94% 30.02 in 10.0 mi Calm Calm - N/A   Clear
1:55 AM 59.0 °F 57.2 °F 94% 30.02 in 10.0 mi Calm Calm - N/A   Clear
2:15 AM 59.0 °F 55.4 °F 88% 30.02 in 7.0 mi North 5.8 mph - N/A   Clear
2:35 AM 59.0 °F 55.4 °F 88% 30.02 in 7.0 mi North 4.6 mph - N/A   Clear
2:55 AM 59.0 °F 57.2 °F 94% 30.03 in 10.0 mi NNE 3.5 mph - N/A   Clear
3:18 AM 59.0 °F 57.2 °F 94% 30.03 in 10.0 mi Calm Calm - N/A   Clear
3:36 AM 59.0 °F 55.4 °F 88% 30.04 in 10.0 mi NNE 4.6 mph - N/A   Clear
3:55 AM 55.4 °F 53.6 °F 94% 30.03 in 7.0 mi North 4.6 mph - N/A   Clear
4:15 AM 55.4 °F 55.4 °F 100% 30.03 in 10.0 mi NE 3.5 mph - N/A   Clear
4:35 AM 55.4 °F 55.4 °F 100% 30.03 in 10.0 mi NNE 4.6 mph - N/A   Clear
4:58 AM 55.4 °F 53.6 °F 94% 30.03 in 10.0 mi NNE 5.8 mph - N/A   Clear
5:17 AM 55.4 °F 55.4 °F 100% 30.03 in 10.0 mi NNE 3.5 mph - N/A   Clear
5:36 AM 55.4 °F 53.6 °F 94% 30.03 in 10.0 mi NNE 4.6 mph - N/A   Clear
5:55 AM 55.4 °F 53.6 °F 94% 30.04 in 10.0 mi NE 3.5 mph - N/A   Clear
6:15 AM 55.4 °F 55.4 °F 100% 30.03 in 10.0 mi NE 3.5 mph - N/A   Clear
6:39 AM 59.0 °F 55.4 °F 88% 30.05 in 10.0 mi NNE 5.8 mph - N/A   Clear
6:57 AM 59.0 °F 55.4 °F 88% 30.06 in 10.0 mi NNE 3.5 mph - N/A   Clear
7:16 AM 62.6 °F 59.0 °F 88% 30.08 in 10.0 mi Calm Calm - N/A   Clear
7:35 AM 62.6 °F 59.0 °F 88% 30.08 in 10.0 mi Calm Calm - N/A   Clear
7:55 AM 62.6 °F 59.0 °F 88% 30.09 in 10.0 mi Calm Calm - N/A   Clear
8:19 AM 64.4 °F 59.0 °F 83% 30.09 in 10.0 mi NNE 3.5 mph - N/A   Clear
8:37 AM 64.4 °F 59.0 °F 83% 30.08 in 10.0 mi NNE 4.6 mph - N/A   Clear
8:57 AM 68.0 °F 60.8 °F 78% 30.08 in 10.0 mi NNE 5.8 mph - N/A   Clear
9:15 AM 69.8 °F 60.8 °F 73% 30.08 in 10.0 mi NNE 5.8 mph - N/A   Clear
9:35 AM 71.6 °F 62.6 °F 73% 30.09 in 10.0 mi NNE 5.8 mph - N/A   Clear
9:55 AM 71.6 °F 62.6 °F 73% 30.09 in 10.0 mi NNE 3.5 mph - N/A   Clear
10:18 AM 71.6 °F 62.6 °F 73% 30.09 in 10.0 mi North 6.9 mph - N/A   Clear
10:37 AM 71.6 °F 62.6 °F 73% 30.10 in 10.0 mi North 5.8 mph - N/A   Clear
10:55 AM 71.6 °F 60.8 °F 69% 30.11 in 10.0 mi North 6.9 mph - N/A   Clear
11:15 AM 71.6 °F 60.8 °F 69% 30.12 in 10.0 mi North 4.6 mph - N/A   Clear
11:35 AM 73.4 °F 60.8 °F 65% 30.12 in 10.0 mi NE 6.9 mph - N/A   Clear
11:59 AM 73.4 °F 60.8 °F 65% 30.12 in 10.0 mi NNE 8.1 mph - N/A   Clear
12:18 PM 73.4 °F 60.8 °F 65% 30.11 in 10.0 mi North 6.9 mph - N/A   Clear
12:36 PM 73.4 °F 60.8 °F 65% 30.11 in 10.0 mi North 8.1 mph - N/A   Clear
12:55 PM 73.4 °F 60.8 °F 65% 30.11 in 10.0 mi North 8.1 mph - N/A   Clear
1:15 PM 73.4 °F 60.8 °F 65% 30.11 in 10.0 mi North 6.9 mph - N/A   Clear
1:35 PM 73.4 °F 59.0 °F 61% 30.11 in 10.0 mi NNE 8.1 mph - N/A   Clear
1:58 PM 77.0 °F 59.0 °F 54% 30.10 in 10.0 mi North 9.2 mph - N/A   Clear
2:17 PM 77.0 °F 55.4 °F 47% 30.10 in 10.0 mi North 11.5 mph - N/A   Clear
2:35 PM 77.0 °F 57.2 °F 50% 30.10 in 10.0 mi North 10.4 mph - N/A   Clear
2:55 PM 77.0 °F 57.2 °F 50% 30.10 in 10.0 mi NNE 10.4 mph - N/A   Clear
3:15 PM 77.0 °F 59.0 °F 54% 30.10 in 10.0 mi North 9.2 mph - N/A   Scattered Clouds
3:39 PM 77.0 °F 57.2 °F 50% 30.09 in 10.0 mi North 9.2 mph - N/A   Clear
3:57 PM 77.0 °F 57.2 °F 50% 30.09 in 10.0 mi North 11.5 mph 16.1 mph N/A   Scattered Clouds
4:16 PM 77.0 °F 59.0 °F 54% 30.09 in 10.0 mi North 6.9 mph - N/A   Scattered Clouds
4:35 PM 77.0 °F 59.0 °F 54% 30.09 in 10.0 mi North 5.8 mph - N/A   Scattered Clouds
4:55 PM 77.0 °F 59.0 °F 54% 30.09 in 10.0 mi North 6.9 mph - N/A   Scattered Clouds
5:15 PM 77.0 °F 59.0 °F 54% 30.09 in 10.0 mi North 6.9 mph - N/A   Scattered Clouds
5:20 PM 77.0 °F 59.0 °F 54% 30.09 in 10.0 mi North 6.9 mph - N/A   Scattered Clouds
5:38 PM 73.4 °F 57.2 °F 57% 30.09 in 10.0 mi NNW 5.8 mph - N/A   Scattered Clouds
5:55 PM 73.4 °F 59.0 °F 61% 30.10 in 10.0 mi NNW 5.8 mph - N/A   Clear
6:15 PM 73.4 °F 59.0 °F 61% 30.11 in 10.0 mi NNW 5.8 mph - N/A   Clear
6:35 PM 77.0 °F 62.6 °F 61% 30.11 in 10.0 mi NW 5.8 mph - N/A   Scattered Clouds
6:55 PM 73.4 °F 59.0 °F 61% 30.11 in 10.0 mi NNW 9.2 mph - N/A   Overcast
7:00 PM 73.4 °F 57.2 °F 57% 30.11 in 10.0 mi North 6.9 mph - N/A   Overcast
7:18 PM 71.6 °F 59.0 °F 64% 30.11 in 10.0 mi North 4.6 mph - N/A   Scattered Clouds
7:36 PM 71.6 °F 60.8 °F 69% 30.12 in 10.0 mi NNW 4.6 mph - N/A   Mostly Cloudy
7:55 PM 71.6 °F 60.8 °F 69% 30.12 in 10.0 mi NNW 3.5 mph - N/A   Mostly Cloudy
8:15 PM 71.6 °F 64.4 °F 78% 30.12 in 10.0 mi NW 3.5 mph - N/A   Scattered Clouds
8:35 PM 69.8 °F 62.6 °F 78% 30.12 in 10.0 mi NNW 3.5 mph - N/A   Clear
8:58 PM 68.0 °F 62.6 °F 83% 30.12 in 10.0 mi NW 4.6 mph - N/A Rain Rain
9:16 PM 68.0 °F 62.6 °F 83% 30.12 in 10.0 mi NW 3.5 mph - N/A   Mostly Cloudy
9:35 PM 68.0 °F 62.6 °F 83% 30.12 in 10.0 mi Calm Calm - N/A   Light Drizzle
9:55 PM 64.4 °F 60.8 °F 88% 30.12 in 10.0 mi NW 3.5 mph - N/A   Clear
10:15 PM 64.4 °F 60.8 °F 88% 30.13 in 10.0 mi NW 4.6 mph - N/A   Clear
10:39 PM 64.4 °F 60.8 °F 88% 30.13 in 10.0 mi NNW 4.6 mph - N/A   Scattered Clouds
10:57 PM 62.6 °F 59.0 °F 88% 30.13 in 10.0 mi NNW 5.8 mph - N/A   Mostly Cloudy
11:15 PM 62.6 °F 59.0 °F 88% 30.13 in 10.0 mi NNW 5.8 mph - N/A   Scattered Clouds
11:35 PM 64.4 °F 59.0 °F 83% 30.13 in 10.0 mi North 6.9 mph - N/A   Clear
11:55 PM 62.6 °F 59.0 °F 88% 30.14 in 10.0 mi North 5.8 mph - N/A   Clear